Location: Unspecified
(0.0000°N, 0.0000°E)
Time: 17:10:41
(UTC+02:00)

Cosmos 1892 Rocket - Visible Passes

Search period start: 03 September 2015 00:00
Search period end: 13 September 2015 00:00
Orbit: 606 x 635 km, 82.5° (Epoch: 02 September)

Date Brightness Start Highest point End Pass type
(mag) Time Alt. Az. Time Alt. Az. Time Alt. Az.
03 Sep 5.9 07:08:54 10° SSE 07:12:37 28° E 07:16:24 10° NE visible
04 Sep 4.0 07:26:04 10° S 07:30:25 68° E 07:34:44 10° N visible
06 Sep 6.7 06:26:00 10° SE 06:28:10 14° E 06:30:36 10° ENE visible
07 Sep 5.4 06:42:10 10° SSE 06:46:02 32° E 06:49:56 10° NNE visible
08 Sep 3.7 06:59:27 10° S 07:03:50 78° E 07:08:09 10° N visible
09 Sep 3.9 07:17:26 10° SSW 07:21:35 42° W 07:25:40 10° NNW visible
10 Sep 6.5 05:59:02 10° SE 06:01:35 16° E 06:04:22 10° NE visible
11 Sep 5.0 06:15:27 10° SSE 06:19:27 36° E 06:23:27 10° NNE visible
12 Sep 3.4 06:32:51 10° S 06:37:13 89° E 06:41:32 10° N visible
